Temperature
17 17 17 17 17 17 17 17 17 17 17 17 17 17 17 17 17 17 16 17 17 17 16 16 16 16 16 16 16 16 16 16 16 16 16 16 16 16 16 16 16 16 15
17 17 17 17 17 17 17 17 17 17 17 17 17 17 17 17 16 16 16 17 17 17 16 16 16 16 16 16 16 16 16 16 16 16 16 16 16 16 16 16 16 15 15
17 17 17 17 17 17 17 17 17 17 17 17 17 17 17 16 16 16 16 16 16 16 16 16 16 16 16 16 16 16 16 16 16 16 16 16 16 16 16 16 15 15 15
17 17 17 17 17 17 17 17 17 17 17 17 17 17 17 17 16 16 16 16 16 16 16 16 16 16 16 16 16 16 16 16 16 16 16 16 16 16 15 15 15 15 15
17 17 17 17 17 17 17 17 17 17 17 17 17 17 17 17 16 16 16 16 16 16 16 16 16 16 16 16 16 16 16 16 16 16 16 16 16 16 16 15 15 15 15
17 17 17 17 17 17 17 17 16 16 17 17 17 17 17 17 17 17 16 16 16 16 16 16 16 16 16 16 16 16 16 16 16 16 16 16 16 16 15 15 15 15 15
17 17 17 17 17 17 17 17 17 16 17 17 17 17 17 17 17 17 17 17 16 16 16 16 16 16 16 16 16 16 16 16 16 16 16 16 16 15 15 15 15 15 15
17 17 17 17 17 17 17 17 17 17 17 17 17 18 18 18 17 17 17 17 17 16 16 16 16 16 16 16 16 16 16 16 16 16 16 15 15 15 15 15 15 15 15
17 17 17 17 17 17 17 17 17 17 17 17 17 18 18 19 19 18 17 17 17 17 17 17 16 16 16 16 16 16 16 16 16 15 15 15 15 15 15 15 15 15 15
17 17 17 17 17 17 17 17 17 17 17 17 17 17 17 18 18 19 18 17 17 17 17 17 17 16 16 16 16 16 16 16 16 15 15 15 15 15 15 15 15 15 15
17 17 17 17 17 17 17 17 16 17 17 17 17 17 17 17 17 18 19 18 18 17 17 17 17 17 16 16 16 16 16 16 16 16 15 15 15 15 15 15 15 15 15
17 17 17 17 17 17 17 17 16 17 17 17 17 17 17 17 18 18 18 18 18 18 17 17 17 17 17 16 16 16 16 16 16 16 16 16 16 15 15 15 15 15 15
17 17 17 17 17 17 17 17 16 16 16 16 17 17 17 17 17 18 18 18 18 18 17 17 17 17 17 17 16 16 16 16 16 16 16 16 16 16 15 15 15 15 15
17 17 17 17 17 17 16 17 16 16 16 16 16 16 16 17 17 17 17 18 18 18 18 18 17 17 17 17 17 16 16 16 16 16 16 16 16 16 15 15 15 15 15
17 17 16 16 16 16 16 16 16 16 16 16 16 16 16 16 16 17 17 17 17 18 18 18 18 17 17 17 17 16 16 16 16 16 16 16 16 16 16 15 15 15 15
16 16 16 16 16 16 16 17 16 16 16 16 16 16 16 16 16 16 16 16 16 17 18 18 17 17 16 17 16 16 16 16 16 16 16 16 16 16 16 16 15 15 15
16 16 16 16 16 16 16 16 16 16 16 16 16 16 16 16 16 16 16 16 16 16 16 17 17 16 16 16 16 16 16 16 16 16 16 16 16 16 16 16 16 15 15
16 16 16 16 16 16 16 16 16 16 16 16 16 16 16 16 16 16 16 16 16 16 16 16 16 16 16 16 15 16 16 16 16 16 16 16 16 16 16 16 15 15 15
16 16 16 16 16 16 16 16 16 16 16 15 15 15 15 15 15 16 15 15 15 15 15 15 16 15 15 15 15 15 15 15 15 15 15 15 16 16 15 15 15 15 15
16 16 16 16 16 16 16 15 15 15 15 15 15 15 15 15 15 15 15 15 15 15 15 15 15 15 15 15 15 15 15 15 15 15 15 15 15 15 15 15 15 15 15
16 16 16 16 16 15 15 15 15 15 15 15 15 15 15 15 15 15 15 15 14 14 14 14 14 15 14 14 14 14 14 14 14 14 14 14 14 14 14 14 14 14 14
15 15 15 15 15 15 15 15 15 15 15 15 15 15 15 15 15 14 14 14 14 14 14 14 14 14 14 13 13 13 13 14 14 14 14 14 14 13 13 13 13 13 13
15 15 15 15 15 15 15 15 15 15 15 14 14 14 14 14 14 14 14 14 14 14 13 13 13 13 13 13 13 13 13 13 13 13 13 13 13 13 13 13 12 12 12
15 15 14 14 14 14 14 14 14 14 14 14 14 14 14 14 13 13 13 13 13 13 13 13 13 12 12 12 12 12 12 12 12 12 12 12 12 12 12 12 12 12 11
14 14 14 14 14 14 14 14 14 14 13 13 13 13 13 13 13 13 13 12 12 12 12 12 12 12 12 12 11 11 11 11 12 12 11 11 11 11 11 11 11 11 10
14 14 13 13 13 13 13 13 13 13 13 12 12 12 12 12 12 12 12 12 11 11 11 11 11 11 10 10 10 11 10 10 11 11 10 10 10 10 10 11 10 10 10
Wind_Speed
6 6 5 4 5 5 6 4 4 4 4 5 4 4 4 4 5 5 9 10 8 8 7 8 7 7 8 8 8 8 8 8 8 8 8 8 8 8 7 7 7 7 6
7 6 6 5 5 5 4 4 5 5 4 4 4 4 4 5 5 4 7 10 9 8 7 7 7 7 7 8 8 8 9 9 9 9 8 8 8 8 7 7 7 7 6
8 7 6 6 5 5 5 4 4 4 4 4 4 4 4 4 5 4 4 6 9 10 8 8 8 7 8 8 8 9 9 9 10 10 9 9 8 8 8 8 8 7 7
9 7 6 6 6 6 6 4 4 4 4 4 4 3 3 4 5 5 5 5 5 7 10 9 8 8 8 8 8 9 9 10 10 10 10 10 9 9 9 9 8 8 8
10 8 6 5 7 6 5 5 5 4 5 4 4 4 4 4 4 5 4 5 5 5 6 10 10 9 9 9 9 9 10 10 11 11 11 11 11 11 10 10 10 9 9
11 9 7 7 8 6 5 4 4 4 4 4 4 4 3 3 4 4 5 5 6 6 6 6 8 10 11 10 10 10 10 11 11 12 12 12 12 12 12 12 11 11 11
11 9 7 7 7 7 6 7 5 7 6 4 4 4 4 5 4 4 5 4 6 6 6 6 7 6 9 13 12 11 11 11 12 12 13 13 13 13 14 13 13 13 12
11 11 9 8 8 6 7 7 6 5 5 5 4 4 4 5 6 6 6 6 6 6 7 8 7 7 7 7 10 13 12 12 12 13 13 13 14 14 14 14 14 14 14
12 11 10 9 8 8 8 8 8 7 6 6 5 4 3 3 4 5 6 6 6 5 6 7 8 8 9 7 7 12 13 13 12 12 13 14 14 14 14 15 15 15 15
12 12 11 10 9 9 7 9 9 7 7 6 5 5 4 3 3 3 6 6 6 7 6 6 7 9 9 9 7 7 12 13 13 13 13 14 14 15 15 15 15 15 15
11 12 11 10 9 8 8 8 7 8 7 7 6 5 5 4 6 5 3 4 5 6 6 7 6 7 8 8 8 9 12 13 14 14 13 13 14 15 15 16 15 15 15
9 12 11 10 10 9 9 9 8 9 8 7 7 6 5 5 5 5 4 5 4 4 5 5 6 6 7 9 9 8 11 13 14 14 14 14 14 15 15 15 16 16 15
9 11 11 10 10 9 9 9 9 9 9 8 8 7 6 6 5 5 5 5 4 4 4 6 6 6 7 7 7 9 11 13 14 15 15 15 15 15 16 16 16 15 15
10 10 11 11 11 11 10 9 9 9 8 8 8 7 6 6 6 6 5 5 5 5 5 6 4 6 6 7 6 9 9 13 14 15 15 15 16 16 16 16 16 16 16
9 11 11 11 11 11 10 10 9 9 8 9 8 8 8 6 6 6 6 6 6 6 5 5 5 4 5 6 5 8 9 10 13 14 15 15 15 16 16 16 16 16 16
9 10 10 11 11 11 10 10 8 8 8 8 6 7 7 7 6 6 6 6 6 7 7 3 4 3 2 5 6 7 8 7 11 12 13 14 15 15 16 16 16 17 17
9 10 10 10 11 10 10 9 9 9 9 8 8 8 9 8 6 6 6 6 6 6 7 7 5 3 4 6 4 7 8 8 9 13 13 13 13 14 15 15 16 16 17
10 10 10 10 10 10 9 9 9 9 9 9 8 8 8 7 7 7 6 7 6 6 7 9 7 6 6 6 6 7 8 9 8 9 11 11 12 13 14 14 15 15 16
9 9 9 9 9 8 8 8 8 7 7 7 6 6 6 6 6 6 6 6 6 6 6 8 8 6 6 6 6 7 8 6 9 7 10 11 11 11 12 13 13 14 15
7 8 8 7 7 7 7 7 7 6 6 5 4 4 4 4 5 5 5 5 6 6 6 7 8 6 6 5 5 6 7 5 6 7 6 7 9 12 13 13 14 14 14
6 6 6 6 5 5 5 5 5 5 5 4 4 3 3 2 1 2 3 4 5 5 6 6 6 6 5 4 5 5 6 6 5 5 6 7 7 8 10 13 13 12 12
5 5 6 5 5 3 5 4 3 4 4 4 4 3 3 3 3 3 1 1 2 4 5 5 5 5 5 5 5 6 6 6 6 4 5 7 7 7 7 8 3 5 8
5 5 5 5 5 5 7 7 5 3 3 2 2 2 2 2 4 4 4 4 1 2 3 4 4 5 5 5 5 6 6 7 7 7 6 9 7 7 8 6 2 3 5
6 6 6 6 6 7 8 7 6 4 3 3 2 1 1 1 1 1 2 2 1 0 0 0 1 3 4 5 5 5 6 7 8 5 5 8 7 7 8 7 2 3 5
7 7 6 7 7 7 8 6 5 5 5 4 4 5 3 1 3 1 2 2 2 2 6 7 6 5 6 8 7 4 5 6 6 5 3 5 7 8 7 7 4 4 6
7 7 8 8 8 8 9 7 4 5 5 5 6 7 10 8 6 4 2 2 3 3 2 3 4 3 4 5 4 4 5 5 6 5 4 5 7 7 7 6 5 7 8
Wind_Direction
165 158 151 157 168 157 164 169 158 146 151 152 153 150 149 137 133 137 135 151 160 164 165 164 165 164 166 168 170 169 166 163 159 159 159 160 159 157 157 157 157 156 155
167 166 165 168 171 170 166 170 160 163 168 150 153 145 163 150 137 153 143 155 169 175 177 177 179 181 182 183 185 183 180 178 175 174 174 174 174 176 175 175 174 174 174
173 180 173 179 174 168 165 183 174 178 176 170 158 157 160 159 149 159 156 161 167 175 182 186 190 195 197 196 194 193 192 190 188 188 189 189 190 191 193 193 191 191 192
184 191 187 184 172 181 183 178 196 188 180 178 163 168 151 155 162 173 177 177 177 172 176 186 198 206 208 208 205 203 201 200 199 199 199 199 201 203 205 205 203 205 205
190 197 194 176 184 189 190 197 180 198 186 186 175 173 181 180 176 186 186 188 183 188 178 175 192 207 212 214 214 214 210 207 207 208 208 208 210 211 212 212 213 214 215
195 199 195 186 198 195 190 195 180 198 198 196 203 167 190 194 200 187 204 196 194 198 200 187 194 200 205 214 218 219 217 214 213 214 215 215 217 217 216 218 220 221 222
196 202 205 187 206 201 197 196 196 189 197 191 193 189 191 205 204 199 212 212 202 203 203 202 216 212 195 204 215 221 222 220 217 217 218 219 221 221 221 223 225 226 227
202 202 208 205 205 201 200 202 202 208 197 193 211 210 207 197 210 209 206 213 216 205 205 209 212 218 234 209 198 210 221 223 222 220 221 222 224 225 224 226 227 229 231
206 213 206 213 209 210 202 204 203 211 209 205 221 235 241 225 192 188 208 216 219 223 223 214 213 212 222 227 212 202 211 220 224 225 224 224 226 226 226 227 229 231 234
207 209 210 212 214 216 205 210 209 215 219 215 210 238 268 316 268 202 197 197 208 221 233 233 222 213 219 224 219 214 207 217 224 227 229 227 226 228 228 229 231 234 236
209 210 209 211 213 216 211 218 210 220 218 226 222 216 222 230 247 260 235 209 203 208 213 224 231 230 222 225 221 215 204 217 225 227 230 229 228 229 230 233 234 236 238
208 210 209 209 212 214 211 215 216 216 224 228 234 231 225 229 233 240 243 236 227 214 208 223 230 227 225 226 223 190 204 219 225 228 230 231 232 232 233 235 237 238 239
205 207 208 208 210 212 214 214 213 219 217 219 226 231 235 242 250 252 255 253 252 229 212 222 221 228 229 227 218 193 216 223 227 230 232 234 235 237 238 238 238 240 242
208 205 206 207 210 211 213 211 213 212 212 217 225 229 236 238 239 244 255 263 258 246 226 230 214 220 230 230 217 200 224 217 226 232 234 235 236 238 239 239 239 240 242
208 205 207 206 208 210 212 208 215 212 210 216 218 215 231 234 237 242 249 255 265 267 254 218 226 207 224 232 208 228 237 215 220 230 234 236 237 238 240 240 240 242 243
208 202 206 207 206 208 208 210 210 211 213 216 224 227 233 236 233 239 244 248 256 268 274 266 236 234 239 254 207 234 240 215 219 228 232 234 237 240 241 242 243 244 245
203 202 204 205 204 205 206 207 215 207 214 217 222 224 229 240 236 236 236 241 244 252 263 269 260 249 242 264 253 251 247 240 233 214 223 232 238 241 243 244 245 247 248
200 200 200 202 204 204 203 204 212 211 216 219 223 225 231 229 230 241 242 245 247 248 255 267 269 263 250 250 255 258 257 248 252 203 209 226 236 241 244 246 248 250 251
196 197 197 199 200 200 203 207 209 214 216 219 222 223 230 231 232 238 241 249 250 246 246 257 261 264 262 260 260 258 257 262 263 232 209 218 228 235 241 245 250 252 253
183 185 188 191 193 199 204 205 207 212 215 212 210 215 224 227 235 242 244 253 257 259 250 251 259 260 259 261 265 270 267 251 260 267 258 241 225 228 235 241 246 250 254
171 174 174 173 178 189 198 191 195 197 194 194 191 196 201 200 211 242 258 257 254 255 255 255 261 266 267 271 269 273 277 278 266 269 271 266 251 250 242 235 239 246 252
155 153 154 152 147 150 111 121 172 184 186 188 187 190 192 193 193 190 221 345 321 267 268 273 273 277 285 285 292 286 287 284 278 279 281 280 275 272 271 270 233 233 253
126 125 125 124 117 95 93 102 109 147 162 177 190 197 210 199 196 199 180 171 109 18 327 289 291 302 304 314 306 295 293 293 292 302 299 286 284 281 281 281 185 241 261
111 106 104 106 100 86 88 103 112 120 110 96 89 122 190 258 232 196 196 177 168 96 313 283 318 330 345 345 326 304 301 288 275 268 285 286 294 296 300 305 238 227 263
112 107 104 99 96 83 78 93 115 115 99 82 64 48 43 64 42 39 151 148 137 112 91 88 78 65 51 33 1 324 313 301 298 299 318 298 306 308 300 290 275 231 254
118 112 100 93 90 84 68 72 102 112 105 95 78 62 54 52 43 40 99 111 102 81 72 93 90 75 51 48 36 4 335 314 311 310 4 330 315 319 306 298 303 302 289
Height
1568 1570 1572 1573 1576 1577 1578 1579 1580 1581 1583 1584 1585 1586 1587 1587 1588 1589 1588 1588 1589 1589 1590 1591 1592 1593 1594 1595 1595 1596 1597 1598 1599 1599 1600 1601 1602 1602 1603 1603 1604 1604 1605
1568 1570 1571 1573 1575 1577 1578 1579 1581 1581 1583 1584 1585 1585 1586 1587 1587 1588 1589 1588 1589 1589 1590 1591 1592 1593 1594 1595 1595 1596 1597 1598 1599 1599 1600 1601 1602 1602 1603 1604 1604 1605 1605
1567 1569 1571 1572 1574 1576 1577 1578 1580 1582 1583 1584 1585 1585 1586 1587 1587 1588 1589 1589 1589 1589 1590 1591 1592 1593 1593 1594 1595 1596 1597 1597 1598 1599 1600 1601 1601 1602 1603 1603 1604 1605 1605
1565 1568 1570 1572 1573 1575 1577 1578 1580 1582 1583 1584 1584 1585 1586 1586 1587 1587 1589 1589 1590 1590 1590 1591 1591 1592 1593 1593 1594 1595 1596 1597 1598 1598 1599 1600 1601 1601 1602 1603 1604 1604 1605
1564 1567 1569 1571 1572 1575 1576 1578 1579 1581 1582 1583 1584 1584 1586 1586 1587 1588 1588 1589 1589 1590 1590 1590 1590 1591 1592 1592 1593 1594 1595 1595 1596 1597 1598 1599 1600 1600 1601 1602 1603 1603 1604
1563 1566 1568 1569 1572 1574 1575 1576 1578 1579 1581 1582 1584 1584 1585 1586 1587 1587 1588 1588 1589 1589 1590 1590 1590 1590 1590 1591 1592 1592 1593 1594 1595 1596 1597 1597 1598 1599 1600 1600 1601 1602 1602
1561 1563 1567 1568 1570 1572 1574 1575 1577 1578 1580 1581 1583 1584 1584 1585 1585 1586 1587 1587 1588 1588 1589 1589 1590 1590 1590 1590 1590 1591 1591 1592 1593 1594 1595 1596 1596 1597 1598 1599 1599 1600 1600
1559 1562 1564 1566 1568 1570 1571 1573 1575 1577 1579 1580 1581 1582 1583 1584 1583 1584 1585 1585 1586 1587 1587 1588 1588 1588 1589 1589 1589 1589 1589 1590 1591 1592 1592 1593 1594 1595 1596 1596 1597 1597 1598
1556 1559 1562 1564 1566 1568 1570 1571 1573 1575 1577 1579 1580 1581 1581 1581 1582 1583 1583 1584 1584 1585 1586 1586 1586 1586 1587 1587 1588 1587 1587 1588 1589 1589 1590 1591 1592 1592 1593 1594 1594 1595 1595
1554 1556 1559 1561 1563 1566 1568 1569 1572 1573 1575 1576 1578 1578 1580 1580 1580 1580 1581 1581 1582 1582 1583 1584 1585 1585 1585 1585 1585 1585 1585 1586 1586 1587 1588 1588 1589 1589 1590 1591 1591 1592 1592
1550 1553 1556 1558 1561 1563 1565 1567 1569 1571 1572 1574 1576 1577 1578 1578 1579 1579 1579 1580 1580 1581 1581 1581 1582 1583 1583 1583 1583 1584 1584 1584 1584 1585 1585 1586 1586 1587 1587 1588 1588 1589 1589
1547 1550 1552 1555 1558 1560 1562 1564 1566 1568 1570 1571 1573 1574 1576 1576 1577 1578 1578 1578 1578 1579 1579 1579 1580 1580 1581 1581 1581 1581 1581 1582 1582 1582 1583 1583 1584 1584 1585 1585 1585 1585 1585
1543 1546 1549 1552 1554 1557 1559 1561 1563 1565 1566 1568 1569 1571 1573 1574 1575 1576 1576 1576 1576 1577 1577 1577 1577 1577 1578 1578 1579 1578 1579 1579 1579 1580 1580 1580 1581 1581 1581 1581 1581 1582 1582
1540 1543 1545 1548 1551 1553 1556 1558 1560 1562 1563 1564 1566 1568 1570 1571 1572 1573 1574 1574 1574 1574 1574 1575 1575 1575 1575 1575 1576 1575 1576 1576 1576 1577 1577 1577 1577 1578 1578 1578 1578 1578 1578
1536 1539 1542 1545 1547 1550 1552 1554 1557 1558 1560 1562 1563 1564 1566 1568 1569 1570 1571 1572 1573 1572 1571 1572 1572 1572 1572 1572 1572 1572 1573 1572 1573 1573 1573 1573 1574 1574 1574 1574 1574 1574 1574
1532 1535 1538 1541 1543 1546 1548 1551 1553 1555 1556 1558 1560 1561 1563 1565 1566 1567 1568 1569 1569 1570 1569 1569 1569 1570 1569 1570 1569 1569 1569 1568 1569 1569 1569 1569 1570 1570 1570 1570 1570 1570 1570
1528 1531 1534 1537 1540 1542 1545 1547 1549 1551 1553 1554 1556 1558 1559 1560 1562 1563 1564 1565 1565 1566 1566 1566 1566 1566 1565 1565 1566 1565 1565 1565 1565 1565 1565 1565 1565 1565 1565 1565 1565 1565 1565
1524 1527 1530 1533 1536 1539 1541 1543 1545 1548 1549 1551 1553 1554 1556 1557 1558 1559 1560 1561 1561 1562 1562 1562 1562 1563 1562 1561 1561 1561 1562 1562 1562 1560 1560 1560 1560 1560 1560 1560 1560 1559 1559
1521 1524 1527 1530 1533 1535 1537 1539 1542 1544 1546 1547 1549 1550 1552 1553 1554 1555 1556 1557 1557 1558 1558 1558 1558 1558 1558 1558 1557 1557 1557 1556 1557 1557 1555 1555 1555 1554 1554 1554 1554 1553 1553
1518 1521 1524 1527 1529 1531 1534 1536 1538 1540 1542 1544 1545 1546 1548 1549 1550 1551 1552 1552 1553 1553 1554 1554 1554 1554 1554 1554 1554 1554 1554 1553 1552 1553 1552 1551 1549 1549 1548 1548 1548 1547 1546
1517 1519 1521 1524 1526 1528 1530 1532 1534 1537 1538 1540 1541 1543 1544 1545 1547 1548 1549 1549 1550 1550 1550 1550 1550 1551 1551 1550 1550 1550 1550 1549 1548 1548 1547 1547 1546 1544 1544 1542 1541 1540 1540
1516 1518 1520 1522 1524 1526 1528 1529 1531 1533 1535 1536 1538 1539 1541 1542 1543 1544 1545 1546 1547 1547 1547 1547 1547 1547 1547 1547 1546 1546 1546 1545 1545 1544 1543 1542 1542 1540 1539 1538 1536 1534 1534
1515 1517 1519 1521 1523 1525 1526 1527 1529 1530 1532 1533 1535 1536 1538 1539 1540 1541 1541 1542 1543 1543 1544 1544 1544 1544 1544 1543 1543 1542 1541 1541 1540 1539 1538 1537 1537 1536 1535 1533 1530 1529 1528
1515 1517 1519 1520 1522 1524 1525 1526 1528 1529 1530 1531 1532 1533 1535 1536 1536 1537 1538 1539 1539 1539 1540 1540 1540 1540 1540 1539 1539 1539 1538 1537 1535 1535 1534 1533 1532 1531 1530 1527 1525 1523 1522
1515 1517 1519 1521 1522 1523 1525 1526 1527 1528 1528 1529 1531 1531 1532 1533 1534 1534 1535 1536 1536 1536 1537 1537 1537 1537 1536 1536 1535 1535 1534 1534 1533 1532 1530 1529 1528 1526 1524 1522 1521 1518 1516
1516 1518 1519 1521 1523 1524 1525 1526 1527 1528 1528 1529 1530 1530 1530 1531 1531 1532 1533 1533 1533 1534 1534 1534 1534 1534 1533 1533 1532 1531 1531 1531 1530 1529 1527 1525 1524 1522 1520 1518 1516 1514 1512